Weather in Yangiabad

Uzbekistan     39°54′49″N   68°46′51″E
temp.,
°C
wind,
m/s
gust,
m/s
humid.,
%
clouds,
%
prec.,
mm/h
press.,
hPa
HPBL,
m
14 august, sun
sun1423:00+24s22280 0.0 100511
02:00+24sw22290 0.0 100511
05:00+22wsw33320 0.0 100521
08:00+25w44260 0.0 1007289
11:00+30nw32200 0.0 1006851
14:00+34nw22160 0.0 10031501
17:00+35wnw22140 0.0 10022240
20:00+27w22200 0.0 100211
15 august, mon
mon1523:00+26ssw22200 0.0 100211
02:00+25ssw22220 0.0 100111
05:00+23sw22250 0.0 100211
08:00+30w33170 0.0 1003261
11:00+34nw33130 0.0 10031104
14:00+37nw43110 0.0 10022108
17:00+37nw54110 0.0 10012856
20:00+30wsw33170 0.0 100319
16 august, tue
tue1623:00+29sw45170 0.0 100350
02:00+27ssw44200 0.0 100336
05:00+26wsw44210 0.0 100435
08:00+28w57200 0.0 1006347
11:00+33wnw55150 0.0 1005976
14:00+36nw44120 0.0 10032424
17:00+36nnw53120 0.0 10023131
20:00+27wsw22171 0.0 100411
17 august, wed
wed1723:00+28sw33176 0.0 100523
02:00+25wsw48210 0.0 1005118
05:00+23wsw47260 0.0 100690
08:00+27w56240 0.0 1007316
11:00+32wnw54160 0.0 10061005
14:00+35wnw33120 0.0 10042201
17:00+36nw54110 0.0 10032746
20:00+28wsw33145 0.0 100517
18 august, thu
thu1823:00+25wsw58180 0.0 1006113
02:00+23sw48200 0.0 1006131
05:00+21wsw48200 0.0 1007151
08:00+23w56170 0.0 1007403
11:00+28wnw54140 0.0 1007861
14:00+32nw33120 0.0 10051393
17:00+33wnw44110 0.0 10031667
20:00+27sw44130 0.0 100433